KD9BEW Weather Reports


Display with metric or nautical units.
time (UTC)temp
F
wind
direction
speed
MPH
gust
MPH
rain 1hr
in
rain 24hr
in
rain mn
in
humidity
%
barometer
mb
20260510181600 49 135 2.0 9.0 0.00 0.00 0.00 51 1020.0
20260510180115 47 74 1.0 10.0 0.00 0.00 0.00 53 1020.1
20260510174555 47 232 3.0 8.0 0.00 0.00 0.00 52 1019.8
20260510173055 47 319 3.0 6.0 0.00 0.00 0.00 51 1019.8
20260510171611 47 46 2.0 12.0 0.00 0.00 0.00 55 1019.8
20260510170056 48 277 3.0 12.0 0.00 0.00 0.00 53 1019.6
20260510164552 48 268 3.0 8.0 0.00 0.00 0.00 54 1019.7
20260510163054 46 317 2.0 8.0 0.00 0.00 0.00 59 1019.5
20260510161557 46 24 3.0 9.0 0.00 0.00 0.00 57 1019.3
20260510160116 47 24 4.0 9.0 0.00 0.00 0.00 56 1019.1
20260510154623 47 49 2.0 9.0 0.00 0.00 0.00 57 1018.9
20260510153104 46 294 3.0 9.0 0.00 0.00 0.00 57 1018.7
20260510151558 46 186 2.0 10.0 0.00 0.00 0.00 57 1018.4
20260510150128 46 301 2.0 10.0 0.00 0.00 0.00 56 1018.3
20260510144612 46 307 3.0 9.0 0.00 0.00 0.00 58 1018.3
20260510143104 45 15 2.0 7.0 0.00 0.00 0.00 62 1018.1
20260510141559 45 252 2.0 9.0 0.00 0.00 0.00 62 1018.1
20260510140059 43 278 1.0 8.0 0.00 0.00 0.00 66 1017.9
20260510134558 43 267 3.0 7.0 0.00 0.00 0.00 67 1017.9
20260510133057 43 24 1.0 6.0 0.00 0.00 0.00 68 1017.9
20260510131557 43 236 2.0 6.0 0.00 0.00 0.00 69 1017.8
20260510130058 42 293 2.0 5.0 0.00 0.00 0.00 71 1017.6
20260510124554 41 326 2.0 4.0 0.00 0.00 0.00 71 1017.4
20260510123059 41 33 2.0 6.0 0.00 0.00 0.00 71 1017.3
20260510121559 40 309 2.0 7.0 0.00 0.00 0.00 71 1017.2
20260510120057 40 280 1.0 4.0 0.00 0.00 0.00 71 1016.9
20260510114555 39 0 1.0 4.0 0.00 0.00 0.00 72 1016.6
20260510113056 38 225 1.0 5.0 0.00 0.00 0.00 73 1016.4
20260510111554 37 214 0.0 6.0 0.00 0.00 0.00 73 1016.2
20260510110054 37 260 0.0 3.0 0.00 0.00 0.00 72 1016.2
20260510104606 37 149 0.0 3.0 0.00 0.00 0.00 72 1015.9
20260510103052 37 190 0.0 3.0 0.00 0.00 0.00 70 1015.7
20260510101601 38 0 0.0 6.0 0.00 0.00 0.00 69 1015.4
20260510100056 38 0 0.0 3.0 0.00 0.00 0.00 68 1015.1
20260510094612 38 0 0.0 2.0 0.00 0.00 0.00 67 1015.0
20260510093054 39 217 0.0 2.0 0.00 0.00 0.00 65 1014.8
20260510091554 39 198 0.0 2.0 0.00 0.00 0.00 64 1014.8
20260510090110 39 175 0.0 2.0 0.00 0.00 0.00 65 1014.7
20260510084600 40 0 0.0 1.0 0.00 0.00 0.00 63 1014.5
20260510083115 41 0 0.0 1.0 0.00 0.00 0.00 59 1014.3
20260510081613 42 169 0.0 5.0 0.00 0.00 0.00 58 1014.2
20260510080056 42 225 0.0 1.0 0.00 0.00 0.00 57 1014.1
20260510074559 43 0 0.0 3.0 0.00 0.00 0.00 56 1014.0
20260510073055 43 248 2.0 7.0 0.00 0.00 0.00 55 1014.0
20260510071601 43 275 0.0 3.0 0.00 0.00 0.00 56 1013.9
20260510070053 43 250 1.0 5.0 0.00 0.00 0.00 56 1013.8
20260510064558 42 283 0.0 3.0 0.00 0.00 0.00 57 1013.8
20260510063056 41 198 2.0 8.0 0.00 0.00 0.00 59 1013.7
20260510061602 40 169 0.0 3.0 0.00 0.00 0.00 62 1013.7
20260510060058 39 161 1.0 4.0 0.00 0.00 0.00 64 1013.7
20260510054555 37 169 1.0 2.0 0.00 0.00 0.00 68 1013.7
20260510053059 37 169 1.0 3.0 0.00 0.00 0.00 67 1013.5
20260510051555 37 159 1.0 2.0 0.00 0.00 0.00 66 1013.3
20260510050058 38 156 0.0 2.0 0.00 0.00 0.00 63 1013.5
20260510044558 39 199 1.0 5.0 0.00 0.00 0.00 62 1013.5
20260510043110 38 195 0.0 2.0 0.00 0.00 0.00 63 1013.5
20260510041601 39 169 0.0 2.0 0.00 0.00 0.00 62 1013.3
20260510040106 39 0 0.0 1.0 0.00 0.00 0.00 60 1013.3
20260510034600 40 191 0.0 2.0 0.00 0.00 0.00 58 1013.2
20260510033057 41 175 0.0 1.0 0.00 0.00 0.00 58 1012.9
20260510031603 42 178 1.0 2.0 0.00 0.00 0.00 55 1012.9
20260510024556 43 0 0.0 0.0 0.00 0.00 0.00 52 1012.7
20260510023057 43 0 0.0 0.0 0.00 0.00 0.00 51 1012.5
20260510021558 44 0 0.0 1.0 0.00 0.00 0.00 50 1012.4
20260510020100 45 0 0.0 1.0 0.00 0.00 0.00 49 1012.1
20260510014600 46 0 0.0 5.0 0.00 0.00 0.00 49 1012.0
20260510013110 47 273 0.0 5.0 0.00 0.00 0.00 47 1011.7
20260510011554 48 0 0.0 6.0 0.00 0.00 0.00 45 1011.2
20260510010052 49 296 1.0 6.0 0.00 0.00 0.00 43 1010.8
20260510004557 51 17 1.0 7.0 0.00 0.00 0.00 42 1010.6
20260510003055 51 309 1.0 8.0 0.00 0.00 0.00 41 1010.4
20260510001555 51 349 0.0 3.0 0.00 0.00 0.00 41 1010.2
20260510000057 51 13 2.0 7.0 0.00 0.00 0.00 41 1009.9
20260509234552 52 17 2.0 8.0 0.00 0.00 0.00 39 1009.7
20260509233058 52 31 1.0 5.0 0.00 0.00 0.00 39 1009.6
20260509231600 52 32 2.0 10.0 0.00 0.00 0.00 38 1009.6
20260509230057 52 24 3.0 9.0 0.00 0.00 0.00 38 1009.4
20260509224552 53 317 2.0 7.0 0.00 0.00 0.00 37 1009.1
20260509223056 54 24 1.0 10.0 0.00 0.00 0.00 38 1009.0
20260509221555 55 15 2.0 8.0 0.00 0.00 0.00 35 1008.9
20260509220057 55 252 4.0 10.0 0.00 0.00 0.00 38 1008.8
20260509214555 55 336 3.0 14.0 0.00 0.00 0.00 36 1008.8
20260509213058 54 161 2.0 10.0 0.00 0.00 0.00 36 1008.7
20260509211557 53 108 1.0 8.0 0.00 0.00 0.00 38 1008.7
20260509210106 53 304 4.0 9.0 0.00 0.00 0.00 37 1008.7
20260509204600 53 288 3.0 12.0 0.00 0.00 0.00 38 1008.6
20260509203058 53 256 3.0 12.0 0.00 0.00 0.00 37 1008.6
20260509201555 52 336 3.0 11.0 0.00 0.00 0.00 40 1008.4
20260509200108 52 277 5.0 11.0 0.00 0.00 0.00 38 1008.2
20260509194555 53 268 4.0 11.0 0.00 0.00 0.00 37 1008.2
20260509193056 53 315 5.0 14.0 0.00 0.00 0.00 39 1008.0
20260509191554 52 302 4.0 10.0 0.00 0.00 0.00 42 1007.8
20260509190058 53 281 5.0 12.0 0.00 0.00 0.00 39 1007.8
20260509184645 53 56 3.0 12.0 0.00 0.00 0.00 41 1007.5
20260509183109 53 275 4.0 13.0 0.00 0.00 0.00 40 1007.4